Theta_e
345 343 342 342 342 341 339 339 337 336 334 334 334 334 336 337 339 339 340 340 339 339 339 338 338 338 336 333 331 334 336 335 333 330 327 325 324 322 321 321 318 318 316 314 314 315 316 319 320 321 322 321 319 318 316 315 315 316 316 315 315 315 314 314 314 314 315 314 314 315 315 315 315 314 313 315 316 315 314 314 313 314 314 314 313
346 344 342 342 342 341 339 339 337 335 334 333 333 334 336 337 338 339 340 340 340 339 339 339 338 338 337 334 332 332 335 336 335 331 328 326 324 323 324 327 326 326 324 320 315 312 312 314 317 320 322 320 319 317 315 315 315 315 314 315 314 314 314 314 314 314 314 313 315 315 315 314 314 313 313 313 314 315 314 313 313 314 314 314 312
346 343 342 343 342 341 339 338 337 335 334 332 333 333 334 337 338 339 339 339 340 339 339 339 339 339 338 337 334 332 334 336 335 332 330 328 326 325 329 334 333 332 332 327 320 315 312 311 313 317 321 321 318 316 316 315 314 315 314 315 314 315 314 315 314 314 314 314 316 316 315 314 313 313 313 313 314 315 314 314 313 313 313 313 312
346 343 342 343 342 340 339 338 336 335 333 331 331 330 332 333 335 336 338 339 339 339 339 339 339 339 338 338 336 332 333 336 336 333 331 329 330 330 334 337 335 334 334 331 326 320 317 314 312 314 321 326 322 316 316 315 315 315 315 315 315 316 315 315 315 315 315 316 317 318 318 317 315 313 313 313 314 315 315 314 313 313 313 313 312
344 342 343 343 341 340 339 337 335 334 332 331 329 329 329 330 331 332 335 337 339 339 338 339 339 339 339 338 336 333 332 336 337 334 331 331 333 335 336 337 337 336 335 335 331 327 323 319 317 313 317 325 323 316 316 315 316 316 315 316 316 317 318 318 318 318 318 318 319 318 320 322 319 314 313 313 314 315 315 315 314 313 313 313 312
343 342 344 342 340 339 338 337 335 333 331 330 329 329 328 328 328 329 331 332 335 337 337 339 339 338 338 337 337 333 331 335 337 335 333 334 335 336 336 336 337 337 337 336 334 329 326 325 325 320 314 317 320 318 317 316 317 316 315 316 318 320 321 323 324 325 325 324 323 321 323 325 322 316 313 314 314 315 315 315 314 313 313 313 312
343 343 343 340 339 338 338 336 334 332 330 330 329 328 326 326 326 327 327 327 329 331 334 336 337 337 337 337 336 331 331 336 337 335 335 336 336 335 335 335 336 336 337 336 333 328 325 328 331 326 317 314 317 319 317 316 317 317 317 318 320 323 326 329 329 330 333 332 330 326 326 326 324 318 313 314 314 314 315 315 315 313 313 313 312
343 343 342 339 338 338 337 335 334 331 330 330 329 327 326 327 326 326 326 327 327 328 331 333 335 336 335 335 333 331 333 336 337 336 336 336 336 335 335 335 335 336 336 334 330 326 324 328 330 327 322 316 315 317 318 316 317 317 318 321 323 326 329 331 332 334 336 336 334 329 328 330 328 319 313 314 314 314 314 314 314 314 313 313 312
344 343 341 338 337 337 336 334 333 330 330 330 328 326 327 328 328 328 327 328 329 331 331 332 334 334 332 332 331 333 335 336 336 336 336 336 336 335 335 335 334 335 335 331 327 324 324 326 325 323 323 322 317 314 316 316 316 318 319 322 324 327 331 333 334 335 336 337 335 331 332 334 330 322 316 314 313 314 314 313 314 314 314 313 312
343 343 340 338 337 336 335 334 331 329 330 329 327 327 328 329 330 330 329 330 331 331 331 332 333 331 330 330 331 334 335 336 336 337 336 336 336 336 336 335 333 331 330 328 324 323 323 324 322 320 320 321 320 314 314 316 316 317 319 323 326 331 334 334 334 334 334 335 336 334 335 335 330 326 319 313 314 313 314 314 314 314 313 313 312
343 342 340 337 336 335 335 333 331 330 330 328 327 328 329 330 330 330 330 331 330 329 330 330 330 330 330 330 332 334 335 336 336 336 335 335 335 334 334 332 329 327 325 325 323 322 324 324 322 320 318 319 321 316 312 315 316 317 318 322 328 333 335 334 334 333 332 333 335 336 336 334 330 327 320 313 314 314 314 314 314 314 313 313 312
343 341 339 337 335 335 334 332 330 329 330 329 327 327 329 330 330 330 328 328 327 327 328 328 329 329 330 331 332 333 334 335 335 334 333 332 332 331 330 329 327 326 326 324 323 325 324 322 322 320 318 317 320 318 312 313 315 317 318 321 328 332 333 333 333 332 330 332 334 334 334 333 329 327 320 314 313 313 314 314 314 314 313 313 312
342 341 339 337 335 335 334 331 330 330 330 329 327 327 328 329 330 329 327 327 327 328 328 329 330 331 331 331 332 333 334 334 333 332 331 331 331 331 330 328 328 327 327 325 324 327 324 322 324 321 319 317 320 319 313 312 314 315 317 320 325 330 332 333 333 332 331 332 332 332 331 329 327 326 318 313 313 314 314 314 314 314 313 312 312
342 341 339 337 335 335 333 331 330 330 330 329 327 327 326 327 329 329 329 328 328 329 330 330 331 331 331 331 332 332 332 332 331 330 330 331 331 331 329 327 327 326 326 326 325 327 325 323 326 322 320 320 319 320 314 312 314 315 317 318 322 330 333 333 333 333 332 333 333 332 330 328 327 322 315 313 314 313 314 314 314 314 313 312 311
343 341 339 337 336 334 333 331 330 330 330 330 329 327 327 327 327 328 329 329 329 328 329 330 330 330 329 329 330 330 329 329 329 330 331 331 330 328 328 327 327 326 326 326 325 325 324 323 325 323 321 320 319 319 315 313 314 315 317 317 323 332 334 334 334 333 333 334 334 333 331 331 327 318 313 313 313 313 314 314 313 314 313 312 311
343 341 339 337 336 334 332 331 331 330 331 331 330 329 329 327 327 327 328 329 330 329 329 329 329 328 328 327 327 327 327 329 330 331 331 329 329 328 328 328 327 327 326 326 325 324 323 322 324 324 321 318 318 318 315 314 315 316 317 319 326 333 334 334 334 333 334 334 333 333 331 331 328 318 313 313 313 313 313 313 313 313 313 312 311
343 341 339 338 336 334 332 331 331 331 331 331 330 330 330 330 329 327 327 328 329 330 329 329 328 328 328 327 326 326 328 330 331 331 331 330 329 330 330 329 328 326 325 324 324 323 323 322 322 324 323 317 316 317 316 316 316 316 317 321 329 332 332 333 333 333 333 333 332 331 329 330 329 319 313 313 313 313 313 313 313 313 313 312 311
341 340 339 338 336 335 333 332 331 331 331 331 331 331 331 331 330 328 327 327 330 332 330 328 327 328 328 328 328 327 329 330 331 332 332 331 331 332 331 329 326 324 323 322 322 322 323 323 322 326 323 316 315 317 317 317 317 317 317 323 329 331 332 332 333 332 332 333 331 331 331 332 330 321 312 313 313 313 313 313 312 312 312 312 311
339 338 338 338 337 335 334 332 332 332 331 332 331 331 331 331 331 330 328 327 331 332 330 329 328 328 327 328 328 328 329 330 331 332 333 333 333 332 329 325 323 323 322 321 320 321 323 323 324 326 322 316 316 316 317 317 319 318 317 323 329 330 331 333 332 331 332 332 330 330 332 332 331 324 314 312 313 313 313 313 312 312 312 311 311
338 336 338 338 337 336 334 334 333 332 332 332 332 332 332 331 331 331 329 329 331 331 330 331 331 329 328 328 328 328 328 330 330 331 332 333 333 331 325 322 322 322 321 321 321 320 321 323 325 325 322 318 318 318 319 318 319 320 319 324 331 332 332 333 332 330 330 330 328 329 329 328 329 325 315 312 313 313 313 312 312 311 312 311 310
339 337 338 337 337 336 336 336 334 333 333 332 332 332 332 332 332 331 330 330 331 331 332 332 331 330 330 329 328 329 329 329 329 329 331 331 332 329 324 322 322 321 321 321 321 320 321 323 324 325 324 321 319 321 322 321 320 321 320 324 331 333 332 334 333 329 329 330 330 329 329 327 326 323 315 312 313 313 313 312 312 311 311 310 309
341 340 339 338 337 337 337 337 336 335 334 334 333 332 332 332 332 332 331 331 332 332 332 332 332 331 331 330 329 330 330 330 329 329 330 330 331 328 324 323 322 321 321 321 321 322 322 321 322 324 325 324 322 321 323 324 323 322 321 323 330 333 333 334 333 331 330 331 331 330 330 328 324 319 314 313 312 312 313 312 312 311 309 310 309
342 342 342 340 339 338 337 337 337 336 336 335 335 335 333 332 332 332 332 332 332 332 333 332 332 331 331 330 330 330 330 330 330 330 330 330 330 328 325 323 322 321 321 322 321 321 321 319 319 321 323 325 324 321 322 324 324 324 323 323 326 331 333 333 333 332 332 332 331 330 330 328 325 319 314 313 313 312 312 312 311 310 309 309 309
341 342 342 341 340 339 338 338 338 337 337 336 336 336 335 335 334 333 333 334 333 333 333 333 331 331 331 330 330 331 330 330 331 331 331 330 330 329 326 323 322 322 321 321 320 320 320 318 317 318 320 323 325 322 322 326 325 325 325 325 325 325 328 332 333 332 332 332 331 331 330 328 326 322 315 313 313 311 312 312 311 310 309 308 309
340 340 341 341 339 338 338 338 338 336 335 336 335 336 336 336 336 335 335 335 334 334 333 333 331 329 331 331 330 330 331 331 330 331 331 330 330 330 328 325 323 322 322 321 320 323 325 323 322 318 316 321 326 324 325 327 327 326 326 329 329 325 325 332 333 333 333 332 332 331 330 329 326 320 315 312 313 311 311 311 311 310 309 308 308
339 339 340 340 339 337 336 336 336 335 335 335 335 336 336 337 337 336 336 334 334 334 334 333 331 331 332 332 330 330 330 330 331 331 330 330 330 331 329 326 324 323 324 322 322 327 329 328 329 323 316 320 326 327 328 328 328 328 326 329 332 328 328 333 334 333 333 332 332 332 331 329 323 317 314 313 312 311 311 310 310 310 309 308 308
339 338 338 339 337 336 335 334 334 334 334 335 335 335 336 336 336 336 335 333 332 333 333 331 331 332 332 331 329 329 330 331 332 331 330 330 331 331 329 327 326 326 327 325 324 330 331 330 331 328 323 325 328 328 328 329 329 329 326 327 330 329 329 332 333 334 334 333 333 332 331 328 321 317 315 312 311 311 311 310 309 309 309 308 308
339 338 337 336 336 336 334 332 332 332 333 333 334 334 334 334 334 334 334 332 331 331 332 331 331 332 331 330 329 330 332 332 332 331 330 330 330 331 330 329 329 328 329 328 326 330 331 330 331 330 328 327 327 328 328 328 329 328 327 327 328 329 329 331 333 335 334 333 333 332 331 327 321 319 316 313 312 310 310 310 309 309 308 308 307
338 337 335 334 335 334 333 332 330 331 332 333 333 333 332 331 331 332 331 329 329 330 331 331 332 332 331 331 331 332 333 332 331 330 330 329 330 331 330 329 330 329 329 330 328 330 330 329 330 330 329 327 326 328 328 328 328 328 327 326 328 329 330 331 332 334 334 333 333 333 331 326 321 319 318 315 313 311 310 309 309 309 308 308 307
336 336 334 334 335 334 334 333 331 331 332 331 331 332 331 330 331 331 329 328 328 330 330 330 331 332 331 331 332 332 332 332 330 329 330 329 330 330 330 330 330 330 330 331 330 329 330 331 330 330 330 328 326 327 328 326 326 327 326 326 328 329 330 331 330 332 333 334 334 333 331 328 322 318 317 317 315 313 311 309 309 308 308 308 307
335 334 335 335 334 334 334 333 333 332 332 331 331 332 332 331 331 331 330 328 328 328 328 329 330 332 332 332 331 331 331 332 331 330 331 330 331 331 331 331 331 331 330 331 331 330 330 330 330 329 330 329 327 327 327 327 326 326 326 326 327 327 328 330 330 330 332 333 334 332 331 330 325 320 317 316 316 315 312 310 310 308 308 307 307
333 333 335 334 333 334 335 334 333 333 332 332 331 330 330 330 330 330 330 329 329 328 327 329 330 332 332 332 331 331 331 332 332 331 331 332 332 332 332 331 331 331 330 331 331 331 330 330 330 329 330 329 328 328 328 327 326 326 326 326 327 325 325 328 329 329 330 331 333 332 330 330 328 325 321 318 316 316 314 311 311 310 309 308 308
334 334 334 333 333 335 335 334 332 332 332 330 327 328 329 329 328 328 329 329 329 328 328 330 330 330 331 331 332 332 332 332 331 331 332 332 331 331 331 331 331 330 330 331 330 330 330 329 329 329 329 329 328 328 327 326 325 325 325 326 326 325 324 327 328 328 329 330 331 331 330 330 329 328 326 324 319 317 316 314 313 312 311 310 309
335 334 334 334 335 334 335 334 332 332 331 327 324 325 328 328 327 328 328 329 329 328 329 330 329 328 330 331 331 332 331 331 330 330 329 328 329 329 330 330 330 329 329 330 330 329 328 328 328 328 329 329 328 327 327 325 325 324 325 325 326 326 325 326 327 328 328 329 330 330 330 329 329 328 328 328 325 321 318 316 315 314 313 313 312
335 335 334 334 334 334 335 334 331 331 330 327 326 326 327 327 325 326 327 328 328 327 328 329 329 329 329 329 330 331 331 330 330 329 327 326 327 329 330 329 329 329 330 330 329 328 327 326 327 328 329 329 329 328 326 325 324 324 324 325 326 326 326 327 327 327 327 328 330 330 330 330 329 329 328 329 328 326 322 319 317 316 316 315 315
334 334 334 334 333 334 334 332 330 331 329 327 328 327 326 326 324 323 322 325 326 325 326 328 328 329 329 329 330 330 330 330 330 330 329 328 328 328 329 329 329 329 330 330 329 329 328 328 328 329 330 329 328 327 326 325 325 324 324 325 325 327 327 327 327 327 327 328 329 330 329 329 329 329 329 329 329 329 328 324 321 320 319 318 317
335 333 334 334 333 332 328 322 321 325 323 323 326 326 327 327 325 323 321 322 324 324 325 326 325 327 329 330 330 329 328 328 329 329 329 329 329 329 329 329 329 329 330 330 330 329 329 329 330 330 330 329 328 327 326 327 325 321 322 324 326 327 327 328 328 327 327 327 329 329 328 329 329 329 328 329 328 328 329 328 327 326 324 323 322
336 333 333 332 329 324 318 313 313 316 316 317 319 322 325 324 321 324 325 324 324 324 325 326 325 325 326 328 329 327 326 326 327 326 327 328 328 328 329 329 329 329 329 329 329 329 329 329 330 330 330 329 328 327 326 328 323 317 319 324 325 327 327 328 328 328 328 327 328 328 328 329 330 330 329 329 329 329 328 329 329 329 329 328 326
336 333 328 325 319 315 313 312 312 312 313 313 313 316 318 316 317 323 327 326 326 325 325 325 324 324 323 325 327 326 325 324 324 325 325 326 327 327 328 328 328 329 329 329 328 329 329 329 330 330 330 329 329 327 327 328 324 318 320 324 325 325 326 327 328 328 327 327 328 328 328 327 328 329 330 329 329 329 329 329 329 330 330 330 328
335 328 320 316 312 313 314 312 312 312 312 313 312 313 315 316 319 322 323 324 325 326 326 325 325 325 322 321 322 323 325 324 324 325 324 324 324 324 325 324 325 327 327 328 328 328 328 328 330 330 330 329 329 328 328 328 327 323 322 323 321 322 324 326 327 327 327 327 327 327 328 327 327 327 328 328 329 328 329 330 330 330 330 330 330
334 323 315 313 311 313 313 312 313 313 313 312 312 314 317 319 322 323 322 322 321 321 323 324 323 322 318 316 315 317 320 320 321 323 322 323 322 321 320 319 321 325 326 327 328 328 327 328 329 329 329 329 328 328 328 328 328 327 326 325 322 321 323 326 326 326 326 326 327 327 327 327 327 327 327 328 328 329 329 330 330 330 330 331 331
332 321 315 313 311 312 313 313 313 313 313 313 316 319 318 319 322 322 322 322 320 319 321 322 320 317 314 312 312 314 315 317 319 321 322 323 323 322 321 321 322 325 326 326 326 327 328 328 328 328 328 328 328 328 329 329 328 328 328 327 325 322 322 323 325 325 325 325 326 326 327 327 327 327 327 327 328 328 329 329 329 330 330 330 330
332 321 315 314 312 312 313 313 313 313 313 317 322 324 321 320 321 321 321 321 321 321 318 315 314 312 310 310 315 319 321 321 322 322 322 322 322 322 322 322 323 323 324 324 325 326 326 327 327 328 328 328 329 329 329 329 329 328 328 327 325 324 322 322 323 322 323 324 326 326 326 327 327 327 327 327 327 327 328 328 328 329 330 330 330
332 323 318 319 316 313 313 313 313 313 316 321 325 325 323 322 322 322 322 319 321 319 313 310 309 308 310 313 319 322 322 322 322 322 322 321 320 321 321 322 322 323 323 323 322 323 324 325 325 326 327 328 328 329 329 328 328 328 328 327 326 325 325 324 324 322 320 322 325 326 326 327 327 327 327 327 327 327 327 327 327 327 329 330 330
333 326 321 325 322 315 313 312 312 315 317 321 323 322 322 322 321 323 323 321 321 315 309 311 311 309 310 313 318 321 321 321 321 320 320 320 320 319 319 320 321 321 322 321 322 322 323 324 324 324 326 328 328 328 328 328 328 328 327 327 326 326 326 325 325 324 322 322 324 323 324 325 326 327 327 327 327 327 327 327 327 327 328 328 329
329 327 324 327 326 318 314 311 313 316 317 319 319 319 319 318 317 319 319 316 315 312 309 311 310 308 309 310 313 317 318 319 317 314 315 318 320 318 318 318 319 321 321 321 321 321 322 323 323 324 325 326 327 327 328 327 327 328 327 327 326 326 326 326 325 324 323 324 324 324 323 323 325 325 326 326 326 327 327 327 327 328 329 328 329
325 328 329 329 328 322 315 311 313 315 316 317 316 315 314 314 311 312 311 309 310 311 311 310 308 308 308 308 309 310 311 313 312 309 310 315 319 319 317 316 316 318 318 320 321 321 321 321 321 323 324 325 326 326 326 326 326 327 327 327 327 326 326 327 326 325 324 324 324 325 324 323 324 325 325 326 326 327 327 326 326 327 328 329 329
326 329 331 331 330 325 317 312 313 314 315 315 314 312 311 310 309 309 308 309 311 311 310 309 308 308 307 307 308 308 307 308 307 307 307 311 316 317 315 315 314 311 310 313 316 315 316 320 322 322 323 324 324 324 324 325 325 325 325 325 325 325 325 326 327 326 324 324 324 324 324 323 323 323 323 324 325 326 326 326 327 327 327 327 328
331 331 332 333 332 328 322 315 313 313 314 314 313 311 311 309 309 310 310 312 313 311 310 309 308 308 308 308 307 307 308 307 307 307 306 307 311 314 315 314 311 308 306 307 308 306 308 315 318 319 322 323 323 323 323 323 324 323 323 322 322 323 324 325 325 326 326 325 325 325 324 323 322 321 321 322 323 323 325 326 326 326 327 327 328
335 332 332 333 333 331 327 319 313 312 313 314 312 311 310 310 311 313 312 314 314 311 309 309 308 309 309 308 308 307 308 307 307 307 306 306 307 309 311 311 308 307 306 306 306 305 306 307 308 311 316 319 321 322 321 321 323 323 321 321 322 322 323 324 324 325 325 323 324 325 323 322 322 323 322 322 321 320 321 322 324 325 325 326 326
335 334 332 332 332 332 329 322 315 312 313 314 313 311 310 310 313 315 314 314 313 311 309 309 309 309 309 309 309 308 308 308 307 307 307 307 306 307 307 307 307 307 307 306 307 307 306 306 306 306 308 310 314 316 313 313 316 320 320 320 320 321 321 323 323 322 322 322 323 323 321 318 319 323 322 320 318 316 316 317 318 320 320 320 319
Wind_Speed
21 21 21 22 20 20 20 20 20 20 20 20 20 19 19 18 18 18 17 15 13 12 11 11 11 11 11 12 13 13 13 14 15 15 15 14 14 13 13 13 13 12 12 12 11 11 11 11 10 10 9 8 8 8 9 9 10 11 12 14 14 14 14 13 12 12 13 14 12 13 17 19 21 21 21 21 19 18 18 18 19 19 20 19 20
24 22 22 23 21 20 20 20 20 20 19 19 20 19 18 17 17 16 16 14 13 12 11 10 10 10 10 11 12 12 12 13 13 14 14 13 13 12 12 13 13 12 11 11 10 10 10 11 10 10 9 8 8 8 9 9 11 12 13 14 14 14 14 13 12 12 13 12 11 13 16 17 18 21 21 21 19 18 18 19 19 19 20 19 20
23 23 23 23 21 21 20 20 20 19 19 19 19 18 18 17 16 15 15 14 13 11 10 9 9 10 10 10 11 11 11 11 12 12 13 12 12 12 13 14 14 14 12 10 9 9 10 10 10 9 9 8 8 9 9 9 11 12 13 14 14 14 14 12 12 12 11 11 11 13 15 16 16 18 20 20 19 17 18 20 20 19 19 19 19
23 24 25 23 22 21 21 20 19 19 18 18 18 18 17 16 15 14 14 13 12 11 10 9 9 9 9 9 10 10 10 11 11 11 12 12 12 12 13 14 14 14 12 10 9 9 9 9 9 9 9 9 9 9 9 9 10 12 14 15 15 14 13 12 11 10 9 8 8 10 14 15 14 15 18 19 18 17 19 20 20 20 19 19 19
23 25 26 24 23 21 21 20 19 19 18 17 17 16 16 16 15 14 13 13 12 11 10 9 9 9 9 9 9 10 10 11 11 11 12 12 12 12 13 13 13 13 12 10 8 9 8 8 9 9 9 10 9 9 9 9 11 14 16 17 16 15 14 12 10 9 7 6 6 8 11 13 12 13 16 17 17 19 19 19 20 19 18 18 18
24 26 26 25 23 22 21 20 19 18 17 16 15 15 15 15 15 14 13 12 12 10 9 9 9 9 9 8 9 10 9 11 11 10 11 12 12 12 12 12 12 11 10 9 6 7 8 8 9 9 9 9 8 8 8 10 12 15 17 18 17 16 16 14 12 10 8 5 4 6 8 10 11 11 14 15 17 19 18 19 20 19 18 17 17
24 27 27 25 24 23 22 20 19 18 17 15 15 15 15 15 15 14 13 11 11 10 9 9 9 8 8 8 8 9 9 10 10 10 11 11 11 11 11 11 10 10 9 7 4 5 6 7 8 8 9 8 7 7 8 11 13 15 17 18 18 18 18 16 13 11 9 7 4 3 5 9 11 11 11 14 17 19 18 18 19 19 18 17 16
25 28 27 25 24 23 22 20 19 18 16 15 15 15 15 15 15 14 12 11 10 10 10 9 9 8 8 8 9 9 10 10 10 11 11 11 10 10 9 9 9 9 7 5 3 4 5 6 6 7 8 7 7 7 8 11 13 15 18 19 19 19 19 17 14 12 9 7 3 1 4 9 11 11 10 12 16 18 18 17 18 18 17 17 16
26 27 26 25 25 23 21 20 19 18 16 15 15 16 16 15 15 14 13 12 11 11 11 11 10 9 9 9 10 11 11 11 11 11 10 10 10 10 8 7 7 7 5 2 2 3 4 4 5 6 7 7 6 7 8 10 13 16 18 19 19 20 20 18 14 12 9 7 4 1 3 8 9 10 11 11 15 17 16 16 17 17 17 17 16
27 27 26 25 25 23 21 20 19 18 17 16 16 16 16 15 15 14 13 13 13 13 13 12 11 10 10 11 12 13 12 12 12 11 9 9 9 9 8 6 5 5 3 1 1 2 3 4 5 6 5 5 5 6 8 10 12 15 18 19 20 22 20 17 14 11 8 4 2 2 4 7 7 8 12 10 13 15 16 15 15 16 17 17 16
28 27 26 25 24 22 21 20 19 18 17 17 17 17 16 16 15 14 14 14 14 13 13 12 12 12 12 13 14 14 13 12 11 10 9 8 8 8 7 6 5 4 3 2 0 1 3 4 5 4 3 3 4 6 7 9 11 15 17 19 21 21 19 16 14 10 6 3 1 4 6 8 7 8 11 8 11 14 15 14 14 15 16 16 16
27 27 25 25 24 22 21 19 19 18 17 17 17 17 17 16 15 15 14 14 14 14 14 13 13 13 13 14 14 14 13 12 11 10 9 8 8 7 7 6 5 5 4 3 2 2 4 4 4 4 3 2 4 5 7 9 10 13 17 19 20 19 17 16 13 8 5 3 2 6 8 9 8 7 8 5 9 13 13 13 13 14 16 16 15
27 26 25 24 23 22 20 20 19 18 17 18 18 18 17 17 16 15 14 14 15 14 15 14 14 14 14 14 13 13 12 11 10 9 9 8 7 7 6 6 5 5 4 3 3 3 4 4 5 4 3 3 3 4 7 8 9 12 17 20 19 17 16 15 13 8 6 4 3 6 6 6 6 6 5 5 8 11 12 12 13 14 15 15 15
25 25 24 23 23 22 21 20 19 18 17 17 17 18 17 17 16 15 15 15 15 14 15 15 14 14 13 13 12 11 11 11 10 9 8 7 7 7 6 6 5 4 4 4 3 3 3 4 4 4 4 2 3 4 6 8 9 12 17 20 19 17 16 15 14 10 7 5 4 5 3 2 5 6 4 6 8 10 11 12 12 13 14 15 15
22 23 23 23 23 22 21 20 19 18 17 17 17 17 17 17 17 16 15 15 14 14 14 14 13 12 11 11 11 11 11 10 9 8 8 8 7 7 6 5 5 4 4 3 2 2 3 3 3 3 3 3 3 4 5 7 9 12 16 19 19 19 17 16 14 10 7 4 5 5 3 2 4 5 5 6 8 10 10 11 11 12 13 13 14
20 22 22 22 22 23 22 20 19 18 17 17 16 16 17 16 16 16 15 15 14 14 13 13 12 11 10 10 10 10 10 9 8 8 8 8 7 6 5 4 4 3 3 2 2 2 2 2 1 2 3 3 3 3 5 6 9 12 16 19 20 19 18 17 13 9 6 5 7 6 5 3 3 3 5 5 7 9 10 10 10 11 11 12 13
20 21 21 21 22 22 22 21 19 18 17 16 16 16 16 16 16 16 15 15 14 14 13 13 12 11 10 10 10 10 9 8 8 8 7 7 5 4 3 3 3 3 2 1 1 1 1 1 0 1 2 2 2 3 5 6 9 11 16 20 20 19 18 16 12 9 7 6 7 6 5 3 3 2 3 4 6 9 9 10 10 10 10 11 12
20 19 20 21 21 21 21 20 19 18 16 16 16 15 15 15 15 15 15 15 14 14 14 13 12 11 11 10 10 9 9 8 8 8 7 7 5 4 4 3 3 3 2 1 1 1 1 1 1 1 2 2 2 3 4 6 8 10 16 20 18 17 16 14 12 10 7 6 6 5 3 3 3 1 2 3 5 8 9 9 9 9 9 10 11
20 20 20 21 21 21 20 19 18 17 16 16 15 15 15 14 15 15 15 15 14 14 13 12 10 10 10 9 9 8 7 7 7 7 7 7 7 6 6 5 4 3 2 2 2 1 1 1 1 1 2 2 2 3 5 6 8 10 15 19 17 15 15 13 11 9 7 6 6 6 5 6 5 3 0 3 5 7 8 8 9 8 9 9 10
20 20 21 20 19 20 19 18 17 16 16 15 15 14 15 14 14 14 14 15 14 13 11 9 9 9 9 8 7 7 7 7 7 7 7 8 9 8 7 5 4 3 2 2 2 2 1 1 2 1 1 1 2 4 5 6 8 10 13 18 17 15 15 10 8 9 7 5 6 8 8 7 7 5 2 4 5 6 7 7 8 8 8 9 9
20 20 20 19 18 18 17 17 17 16 16 15 14 13 14 14 14 14 14 15 14 11 8 7 7 7 8 7 7 8 7 7 7 7 8 8 9 8 7 5 4 3 3 3 2 2 2 2 2 2 2 2 3 5 6 6 7 9 12 17 17 16 15 7 6 9 7 5 6 7 7 8 7 6 4 4 5 5 6 7 8 8 8 8 8
20 20 19 18 17 18 17 17 17 17 16 14 14 13 13 13 13 13 14 14 12 10 7 6 7 7 6 7 7 8 7 6 6 6 8 9 9 8 7 6 5 4 3 3 3 3 2 2 2 2 3 3 4 5 6 6 6 8 9 15 18 17 13 5 5 6 6 6 7 7 6 7 6 6 4 4 5 5 6 7 8 8 8 8 8
20 19 18 17 16 17 16 17 17 16 15 14 14 13 13 13 13 14 14 13 10 9 8 7 8 7 7 8 8 8 7 6 6 7 8 9 9 9 8 6 6 5 4 3 2 2 2 2 2 3 3 4 5 5 7 7 6 6 6 10 15 16 11 4 4 3 5 7 7 8 7 8 7 5 3 3 6 6 6 6 7 8 8 8 8
21 20 18 17 16 16 16 16 16 15 15 14 13 13 13 14 14 14 14 11 10 10 8 8 9 9 9 9 8 9 8 7 7 7 7 8 9 9 8 7 6 5 5 3 2 2 2 2 2 3 3 4 5 6 8 9 7 6 3 4 9 14 11 4 4 3 3 5 7 8 8 9 8 6 3 3 5 6 5 6 6 8 8 8 7
21 20 18 17 16 15 15 16 14 13 13 13 13 13 13 14 14 14 13 10 10 10 8 8 9 9 9 9 9 10 9 8 7 6 7 8 9 9 9 8 6 6 5 4 3 2 1 2 2 2 2 4 5 7 8 6 6 7 4 2 2 9 11 6 5 5 3 4 8 8 8 9 8 5 2 2 4 6 6 6 6 7 7 7 7
20 20 19 17 16 14 14 14 13 11 11 12 12 12 12 13 13 13 11 9 9 10 9 9 9 9 10 9 10 11 10 9 8 7 7 7 7 9 10 9 8 7 6 5 4 2 1 2 3 3 3 5 6 5 4 2 3 3 2 2 1 3 6 6 7 6 5 5 8 8 9 9 7 4 1 1 3 5 6 6 7 7 6 7 6
21 20 18 16 15 14 14 14 13 12 11 11 11 10 10 11 11 10 9 8 7 8 9 9 8 9 11 10 10 11 9 8 8 7 7 7 8 9 11 10 8 7 5 4 4 4 3 2 3 5 6 7 5 3 1 2 3 1 4 3 3 3 1 7 9 7 6 7 8 8 8 8 5 3 1 1 1 3 5 6 7 7 7 6 6
21 20 17 15 14 14 14 14 13 12 11 11 10 10 9 9 8 8 8 7 6 5 7 8 8 9 10 11 11 10 9 8 8 9 8 8 8 10 10 9 8 7 6 5 5 6 3 2 3 6 7 8 6 3 1 3 2 3 6 6 5 5 4 8 10 8 8 8 8 7 6 6 4 2 1 1 2 3 4 5 6 7 7 7 6
21 21 18 15 13 13 13 12 13 11 10 10 9 9 8 7 7 7 7 5 4 5 5 6 7 9 10 11 12 10 9 9 9 9 8 8 8 10 9 8 8 9 9 8 8 7 5 4 5 5 7 8 8 6 3 3 5 7 9 9 7 6 6 8 9 8 9 8 8 7 6 5 4 2 1 1 2 3 3 4 5 6 8 8 8
22 21 19 17 14 13 12 11 13 12 11 10 8 8 7 6 6 6 6 5 5 6 6 6 6 8 8 10 11 10 9 10 10 10 8 7 8 9 9 8 9 9 9 9 9 9 7 6 6 5 6 8 10 11 8 7 6 7 9 10 10 8 6 7 10 10 9 8 7 7 6 5 3 2 2 1 1 3 3 4 4 5 7 7 8
22 22 20 17 14 13 12 10 11 10 10 9 7 7 5 5 5 4 5 6 6 7 7 7 6 7 8 9 10 9 9 11 11 9 9 8 8 8 9 9 9 9 9 9 10 11 10 9 8 7 7 8 11 12 11 11 8 6 7 7 9 9 8 7 10 11 10 9 8 6 5 5 4 3 2 2 1 1 3 4 3 4 5 6 7
22 23 20 18 16 15 14 11 10 9 10 9 6 7 6 5 5 4 5 6 6 7 6 6 6 7 9 9 9 10 10 11 10 9 9 8 7 7 8 9 9 8 8 8 8 11 11 11 11 10 7 6 12 13 11 12 11 10 8 7 8 10 9 9 9 10 10 10 8 5 5 5 4 3 3 2 2 1 2 3 3 3 4 5 6
22 21 20 21 20 17 17 14 12 12 11 9 8 9 9 7 6 6 6 6 6 6 5 5 5 6 8 9 10 11 11 11 10 9 8 6 6 7 8 9 9 9 9 8 7 9 9 11 11 10 8 6 11 13 11 12 12 13 11 7 8 9 10 10 10 10 9 10 8 6 5 4 4 4 4 3 3 2 1 3 4 3 4 4 4
22 21 21 22 20 18 17 15 14 15 13 10 10 12 10 7 7 7 6 5 5 5 4 5 4 4 5 6 8 10 10 9 10 10 8 7 8 9 9 10 11 10 9 8 8 9 8 9 11 11 10 7 10 12 11 11 11 12 14 11 9 8 10 12 11 11 11 12 11 8 7 5 5 5 4 4 4 3 2 2 3 3 3 3 3
21 22 23 22 20 19 19 17 16 17 17 13 12 12 11 9 7 5 3 3 3 3 4 3 3 3 3 4 5 7 7 7 8 10 9 9 10 10 10 11 12 11 9 8 9 10 9 9 10 11 10 7 9 11 10 12 12 11 15 16 12 9 11 12 13 14 12 11 12 10 9 7 6 6 5 4 4 4 4 3 2 2 2 2 3
22 24 23 21 21 21 19 18 20 20 18 16 15 12 11 9 7 4 3 4 4 5 5 3 2 1 2 3 3 3 5 5 6 8 7 8 9 10 11 11 12 12 10 9 9 9 8 8 9 9 10 9 9 9 9 11 14 15 17 17 14 11 13 13 13 17 12 7 10 10 9 8 7 7 7 5 5 5 5 4 3 2 2 2 2
22 25 24 22 21 20 17 17 19 19 17 17 15 13 12 9 7 5 5 6 7 8 7 5 4 4 4 3 2 2 4 3 3 4 5 6 8 10 11 11 11 11 11 10 10 10 8 7 8 9 11 11 11 10 10 10 10 15 20 18 14 12 14 13 12 16 15 8 8 9 10 10 8 8 8 8 7 6 6 6 5 4 3 2 2
21 23 24 21 18 17 16 16 17 16 15 15 14 15 14 10 9 10 9 8 7 7 7 6 5 6 6 5 4 5 4 4 3 2 2 3 5 7 9 9 9 10 11 11 11 10 10 9 8 10 12 13 13 12 12 11 7 11 18 16 11 12 15 15 12 13 15 12 9 8 9 11 11 10 9 9 8 7 7 7 6 5 4 4 3
19 20 21 20 18 17 17 16 16 16 15 14 13 14 13 11 12 14 13 11 10 10 8 5 4 4 4 5 6 6 5 5 5 4 3 2 1 2 4 4 5 7 8 9 9 9 10 9 8 9 11 14 15 14 13 11 7 10 15 15 12 13 16 17 15 12 13 14 11 8 5 7 9 10 11 9 8 9 8 8 7 7 6 6 5
18 18 19 19 19 20 19 17 16 16 15 14 13 13 13 15 16 15 14 13 12 12 10 8 5 4 3 4 7 8 7 5 5 5 2 2 1 2 3 3 3 3 4 5 7 8 9 9 8 8 9 12 14 13 14 13 10 10 14 16 17 16 18 20 19 16 14 14 14 12 8 4 3 7 11 11 11 11 10 9 9 8 7 7 6
18 19 20 20 21 21 20 19 18 16 15 15 14 14 15 16 16 13 11 9 10 12 12 10 8 5 3 2 5 5 6 6 6 7 5 4 2 2 3 3 3 3 3 3 3 6 8 8 7 7 8 11 12 13 14 13 11 11 11 13 15 16 18 21 20 19 17 15 16 15 12 8 5 5 7 9 12 12 10 10 10 9 8 8 7
20 20 20 20 21 21 20 20 19 17 15 15 15 14 13 14 14 13 11 9 10 11 10 10 7 5 3 2 6 11 12 11 11 11 9 7 4 2 0 1 1 2 3 3 2 1 3 5 6 8 9 10 12 14 14 12 11 10 10 11 11 12 15 18 21 19 18 18 18 17 15 13 12 8 4 5 11 12 11 11 11 11 10 8 8
20 20 20 20 21 21 21 20 19 18 16 15 15 14 13 13 13 13 12 10 11 10 7 9 8 6 6 7 11 15 15 13 12 11 10 8 7 4 3 4 5 6 6 6 6 6 5 3 1 4 7 10 11 13 13 13 13 10 9 10 9 10 10 12 18 18 15 16 16 16 16 14 15 14 9 7 9 12 13 12 12 12 11 10 9
21 21 21 21 21 22 22 20 19 18 18 18 17 16 16 15 14 14 12 9 9 7 7 11 10 8 10 11 14 13 12 12 11 10 9 9 9 7 5 5 5 6 7 7 8 8 8 8 6 3 3 8 10 11 11 12 12 11 10 9 8 8 7 6 10 13 13 14 14 14 14 14 15 15 14 12 10 10 10 11 12 12 12 11 11
22 22 22 22 22 22 21 20 19 19 20 21 19 18 18 19 18 17 14 11 10 9 10 13 11 10 11 11 13 14 13 12 10 9 9 10 10 9 7 5 4 6 8 7 7 7 6 7 7 7 6 5 6 8 9 9 11 11 11 10 8 7 7 6 5 7 10 12 13 14 14 13 14 14 15 15 14 12 11 10 10 10 11 11 11
23 22 22 22 22 22 20 20 20 20 20 21 20 18 18 18 18 18 16 14 14 12 12 13 12 11 11 11 12 13 12 10 7 6 9 12 11 9 8 6 7 8 8 8 7 6 4 5 6 8 9 7 4 4 5 6 7 9 11 10 8 6 7 8 6 6 8 10 11 13 14 13 13 13 14 15 15 15 14 12 10 9 10 10 10
24 23 23 23 23 22 21 21 21 20 20 19 19 18 18 16 15 15 15 16 17 15 14 13 13 12 10 10 11 11 10 9 8 6 8 13 13 10 9 8 9 9 8 8 7 6 5 4 6 7 8 9 8 7 7 6 4 5 6 7 7 7 7 7 7 6 7 9 9 10 11 11 11 12 13 14 15 16 16 15 13 13 13 12 12
25 25 25 25 24 24 22 22 23 21 19 18 18 18 18 17 16 16 16 16 16 16 15 14 13 12 11 11 11 11 12 11 11 10 10 12 13 11 9 8 8 7 6 8 8 7 8 8 6 6 6 7 8 8 8 8 7 8 8 6 4 4 5 7 7 8 7 7 7 8 8 7 7 8 9 11 13 15 16 16 16 16 14 14 15
26 26 27 26 25 25 23 23 24 23 20 19 19 18 17 18 18 18 17 17 15 15 16 15 13 12 12 12 11 11 11 12 12 12 12 12 12 12 10 8 7 8 8 8 7 7 8 9 9 7 8 7 7 7 7 8 8 9 10 9 8 7 5 4 6 7 7 5 4 4 4 4 4 5 5 6 8 10 12 14 15 16 14 14 15
27 27 28 28 26 26 25 25 26 24 22 20 19 19 18 19 18 17 17 17 16 15 16 15 14 12 12 12 11 11 11 11 12 12 12 12 12 11 9 7 7 8 10 10 11 10 9 8 6 7 9 9 9 8 6 7 7 6 7 7 8 7 7 7 6 6 5 4 4 4 3 2 2 1 1 2 3 5 8 10 12 12 12 11 11
26 26 28 29 29 28 28 27 27 26 25 22 21 20 19 19 19 16 16 17 16 16 17 15 14 12 11 11 11 11 10 10 11 11 11 11 11 11 9 8 8 9 10 10 10 10 10 10 8 8 7 7 8 7 6 7 8 8 7 7 7 8 7 7 6 6 5 4 5 6 5 4 4 3 3 1 2 2 3 6 8 10 10 10 11
Wind_Direction
148 145 138 133 137 135 135 132 131 129 129 130 132 136 139 144 146 147 146 147 148 146 142 135 132 124 118 112 108 111 116 117 120 125 124 124 121 115 111 109 105 99 97 97 98 99 98 98 96 99 102 104 113 121 127 132 131 128 125 117 112 112 111 110 108 105 101 96 90 80 77 79 79 78 77 75 73 68 69 70 68 71 75 76 75
149 146 139 135 137 135 134 132 131 129 129 130 133 138 141 146 147 149 149 151 154 151 147 139 135 127 119 112 109 109 115 119 119 125 124 122 118 112 107 104 101 94 92 90 92 95 95 96 95 96 98 103 109 116 125 130 130 128 124 118 116 117 116 117 117 111 106 100 89 76 72 72 75 77 78 77 74 70 71 73 70 70 73 74 73
149 145 139 135 137 134 133 132 130 129 128 129 133 139 143 148 149 152 154 156 158 156 152 142 136 128 119 111 110 106 111 120 120 123 125 120 114 111 104 100 97 93 95 92 86 89 92 93 95 97 98 102 108 116 125 130 131 127 124 123 122 122 121 120 119 113 107 101 87 77 73 68 71 76 78 78 76 74 73 73 71 70 71 73 72
152 144 140 136 136 133 133 131 130 129 127 129 133 137 143 149 152 156 159 161 162 162 157 146 136 127 120 114 109 105 109 121 122 120 124 122 114 112 106 103 97 93 97 93 79 76 82 88 92 96 99 99 103 111 119 127 127 126 126 126 124 120 119 116 113 109 107 106 90 79 74 65 64 71 77 80 78 76 74 73 74 73 72 74 75
152 144 140 136 135 133 133 132 130 129 128 128 131 135 140 147 152 158 163 165 167 167 160 151 139 128 123 116 109 107 111 125 124 116 122 125 119 118 114 109 103 98 96 94 83 69 70 82 92 97 100 100 101 106 114 119 120 127 129 126 123 118 114 108 103 99 99 105 96 84 74 62 56 66 77 81 78 75 74 73 74 75 74 74 77
150 143 139 136 134 133 133 132 130 128 127 125 126 130 135 143 150 157 163 166 168 169 164 154 141 134 127 120 113 111 116 130 129 118 125 127 124 127 122 116 110 105 100 100 92 64 61 75 90 97 99 100 102 105 114 115 118 130 130 127 122 115 107 99 93 85 79 73 82 90 72 58 51 60 76 79 76 75 73 73 74 76 76 74 75
148 141 138 135 132 133 133 131 130 127 124 122 122 125 130 136 144 152 157 159 163 163 158 152 143 138 130 124 117 114 123 134 136 131 132 129 127 132 129 126 118 110 106 105 88 50 56 72 85 92 94 97 102 104 108 107 119 132 130 126 120 114 106 99 95 88 81 61 54 88 69 52 41 47 69 77 77 76 74 73 75 76 77 76 76
146 141 137 134 132 132 133 131 129 126 122 119 119 123 126 130 136 142 146 148 149 146 144 141 139 136 130 123 114 117 128 134 138 139 138 133 129 133 133 133 126 118 114 102 59 32 52 72 80 80 83 88 97 104 100 100 119 134 130 128 123 118 111 106 106 103 105 96 102 138 59 36 28 39 56 70 74 76 76 74 75 75 76 78 77
146 142 137 133 132 132 132 131 128 125 122 118 119 122 124 126 129 132 135 137 135 134 134 134 134 133 128 119 115 121 129 132 135 137 138 135 136 138 136 136 129 123 122 98 26 19 42 56 57 58 67 75 86 101 103 100 119 136 134 132 127 119 113 112 114 115 119 122 151 239 26 9 12 38 40 59 73 75 78 76 77 77 78 79 80
146 140 137 133 130 132 132 130 129 127 122 119 120 120 122 123 124 126 129 131 130 131 132 134 133 129 124 119 120 125 129 131 134 135 132 133 139 141 140 146 141 129 136 164 345 19 45 46 43 47 55 70 85 103 113 107 120 138 140 136 126 119 116 116 114 116 124 131 164 318 339 332 342 19 27 56 74 75 79 80 83 82 82 81 81
144 139 136 132 131 132 133 132 131 127 121 119 119 119 119 120 122 124 125 127 127 128 129 131 128 124 121 120 124 127 128 129 132 133 131 135 139 141 148 156 148 138 147 157 129 62 76 63 46 40 43 76 106 117 124 116 123 140 146 139 128 124 121 117 113 119 136 126 1 314 301 311 321 357 23 60 76 75 81 82 85 84 83 83 82
141 139 135 133 132 133 133 134 133 128 121 119 120 119 119 120 121 122 123 123 123 123 124 124 121 120 120 122 127 130 131 131 133 136 139 143 142 144 147 145 140 139 138 137 135 106 98 74 50 40 44 100 130 135 136 125 127 141 149 144 135 130 125 123 122 132 145 118 323 294 285 302 315 348 21 63 80 78 86 87 89 87 85 86 85
140 138 137 135 133 135 136 137 136 129 124 122 122 120 120 121 120 121 121 121 121 122 121 121 118 118 119 122 126 130 133 134 137 142 145 148 146 146 140 135 136 133 126 128 132 118 101 71 61 54 58 112 142 155 147 133 131 139 150 150 142 132 128 128 125 137 154 144 262 276 272 295 326 356 36 96 90 85 91 90 90 90 88 88 89
138 139 138 137 136 138 139 140 138 132 129 126 124 122 122 120 120 121 122 122 122 122 121 120 118 117 120 123 128 132 135 137 141 146 148 149 146 144 139 135 130 123 119 118 115 109 89 68 70 61 56 96 140 166 158 140 135 140 151 154 146 134 131 129 127 153 167 158 235 262 256 304 359 18 81 118 101 95 96 91 90 91 91 90 90
137 140 140 140 139 141 143 144 140 137 135 129 127 124 122 120 121 122 122 123 121 122 122 121 120 121 123 128 135 137 139 141 143 146 147 147 146 144 140 134 126 122 117 106 102 87 72 68 71 64 55 75 121 165 161 142 136 141 151 154 148 139 135 132 138 165 163 166 239 259 263 298 0 40 103 128 109 101 98 96 93 93 93 91 89
138 141 142 143 144 145 147 147 144 141 139 134 131 128 125 123 123 124 124 124 124 125 124 125 127 130 134 138 142 143 144 145 146 149 150 151 150 148 143 137 134 137 133 118 107 81 82 93 73 63 58 70 102 155 159 143 135 142 151 153 150 144 139 133 139 161 158 201 243 255 261 275 327 44 109 132 113 106 103 103 98 97 97 95 92
140 142 145 147 148 149 151 150 148 146 144 140 138 136 132 128 127 128 127 127 128 130 130 130 131 137 145 148 148 152 154 155 155 156 157 158 158 160 163 162 164 168 165 160 147 98 117 157 190 69 58 74 105 151 157 143 132 140 153 154 152 150 146 137 146 172 175 209 239 248 258 279 313 28 115 134 121 115 111 110 105 102 100 100 98
139 144 146 149 151 152 154 152 151 151 150 147 145 145 141 137 135 132 130 131 132 133 132 127 131 143 149 154 157 161 167 169 170 169 169 174 183 192 198 194 189 191 200 212 221 255 207 201 201 113 69 87 130 159 164 149 130 135 153 157 156 156 153 147 162 185 189 209 235 248 258 277 290 5 117 144 139 126 120 118 115 110 107 106 103
139 145 147 151 154 155 156 154 154 156 157 156 154 153 149 148 144 139 135 137 138 136 131 124 136 150 150 157 161 166 176 182 186 184 184 191 198 202 204 208 205 202 221 244 254 267 249 215 169 125 73 88 134 154 168 156 133 130 151 159 157 155 152 150 169 185 195 216 251 265 266 278 287 313 135 167 166 140 130 127 123 121 115 111 108
141 146 149 152 154 156 158 155 157 162 165 164 163 161 159 158 152 148 145 147 149 145 138 134 151 158 155 160 162 168 179 183 191 194 193 201 202 201 206 211 212 207 222 249 255 248 235 186 146 124 77 100 121 140 158 155 138 129 147 158 154 151 146 141 171 183 191 223 272 281 283 294 298 301 264 184 187 157 139 136 133 131 124 117 113
143 148 150 152 153 156 157 157 162 168 173 171 170 170 168 166 161 157 158 162 163 159 151 144 164 175 165 168 175 177 183 183 189 197 200 206 207 209 212 213 210 208 221 233 238 238 227 193 170 150 126 126 122 131 144 145 141 131 144 159 155 149 142 136 178 184 191 226 279 289 298 305 301 296 257 197 201 175 152 147 142 138 130 123 115
147 150 150 153 153 156 157 158 165 173 177 176 175 177 177 173 167 169 173 177 178 178 172 156 172 196 188 188 194 188 191 196 197 204 208 210 213 218 214 209 208 210 222 222 231 240 235 227 223 180 152 139 124 131 137 130 133 132 140 157 161 153 142 148 171 176 205 231 271 280 299 307 301 298 265 208 207 193 167 157 147 143 136 129 122
152 149 149 156 156 156 157 160 167 173 175 175 177 182 185 181 177 182 187 187 192 198 192 176 183 205 204 204 208 201 202 211 213 209 211 213 216 222 214 209 210 216 223 216 227 240 254 256 247 225 186 156 127 123 124 112 109 120 135 157 170 165 149 159 165 168 227 230 257 268 288 299 295 293 275 223 209 204 181 168 155 149 145 138 132
153 150 151 157 156 155 155 160 166 171 174 171 176 183 185 188 187 193 198 195 201 211 209 199 197 207 209 214 217 210 215 224 226 215 211 214 216 219 213 213 214 221 227 213 221 243 278 291 273 258 213 169 139 139 131 113 99 98 112 154 176 179 175 199 191 187 217 223 252 268 284 294 299 295 271 240 216 212 192 178 167 156 154 149 142
152 151 156 157 152 153 154 158 165 170 173 169 173 181 183 189 192 197 203 198 203 214 221 214 207 211 213 220 221 218 223 227 234 230 222 219 217 218 215 216 217 227 235 213 210 238 292 339 354 323 207 171 141 140 139 121 102 97 94 113 178 190 189 213 215 206 204 231 261 271 283 295 306 301 267 246 227 216 198 185 179 168 166 161 152
152 152 157 156 146 147 151 154 161 166 168 170 174 179 181 184 191 198 199 193 202 212 218 220 214 214 215 219 222 219 221 224 234 234 228 230 226 223 219 215 214 223 233 216 197 173 125 75 58 54 113 143 127 122 133 94 74 96 127 135 258 204 180 223 231 217 221 236 265 273 278 293 303 300 287 226 229 220 206 194 188 184 184 176 167
152 151 154 154 143 145 150 151 156 162 165 171 176 176 177 180 189 201 200 192 199 208 216 219 214 217 215 212 215 213 217 224 229 222 220 231 229 223 218 214 213 217 225 221 203 179 156 123 108 99 114 136 123 97 99 5 18 279 239 201 248 273 272 262 239 221 232 237 261 272 272 286 296 300 332 135 194 216 214 205 197 196 198 192 185
150 148 151 152 145 148 150 149 155 164 167 170 175 173 172 178 192 202 198 189 192 210 216 210 209 219 215 211 217 218 223 226 221 214 214 222 223 221 218 214 216 216 213 212 214 204 193 210 172 142 148 156 135 105 330 291 263 221 223 218 233 256 280 267 240 228 237 239 261 270 268 279 289 296 292 129 153 197 217 212 205 202 202 200 198
155 149 153 155 153 156 153 151 158 166 171 171 173 168 166 174 190 200 194 191 194 207 217 213 211 216 213 216 225 225 227 226 217 217 223 226 221 220 220 217 222 225 217 209 218 224 216 226 215 170 163 158 145 159 200 216 221 217 210 208 205 213 242 258 255 247 238 239 262 268 264 273 283 297 284 200 166 182 208 213 212 210 209 205 201
161 155 162 163 158 162 159 155 158 165 173 175 173 166 163 172 183 195 206 216 202 197 218 226 217 212 214 220 226 225 225 224 220 225 233 229 217 220 224 220 223 230 229 216 219 231 233 239 237 206 182 166 159 172 182 177 199 224 217 209 200 199 216 250 266 262 247 240 254 267 261 263 272 296 312 274 201 180 196 214 220 215 214 212 204
160 157 166 168 162 167 165 158 157 160 161 162 166 166 164 170 182 195 214 223 204 199 215 218 209 210 217 221 225 228 227 221 221 229 231 224 215 219 226 225 225 229 232 222 219 227 230 235 235 221 209 190 178 179 188 191 193 206 222 220 213 221 216 231 265 265 262 251 244 261 265 264 269 285 313 327 310 194 184 203 218 218 217 217 209
156 153 164 171 170 168 162 158 156 147 142 145 147 152 151 151 165 174 189 205 205 209 218 215 201 202 214 223 228 230 229 223 223 226 226 227 218 216 227 231 233 233 229 222 226 232 231 236 239 232 230 210 192 188 192 196 196 205 224 231 235 252 229 218 256 262 267 261 241 250 272 282 277 282 303 318 331 293 181 184 200 209 212 215 215
155 154 162 167 170 166 159 160 159 148 138 139 138 139 140 143 154 158 169 186 194 200 207 210 201 198 207 219 225 223 221 220 221 223 224 233 234 232 240 237 233 232 226 221 232 238 234 241 249 246 248 231 194 189 191 191 195 208 214 212 225 244 226 218 242 254 264 258 244 254 271 287 284 293 308 304 313 301 226 187 193 195 194 200 211
158 161 162 162 166 164 162 163 159 149 142 146 151 147 146 152 159 153 155 168 172 171 181 196 197 198 203 216 229 226 225 222 222 231 234 244 247 239 239 241 239 235 231 226 231 235 229 236 248 247 250 246 202 194 199 195 196 208 210 206 208 219 224 221 224 239 257 254 249 256 258 268 282 293 304 300 301 291 268 218 200 197 185 181 191
162 166 167 166 168 167 170 168 159 152 149 154 161 157 157 168 173 155 150 165 153 136 148 159 158 189 197 208 229 231 233 223 219 231 231 233 243 240 238 244 246 243 241 236 232 233 229 232 243 245 244 244 223 209 206 207 207 210 212 214 214 214 223 215 206 219 239 248 244 245 247 251 264 279 288 297 297 287 276 252 227 217 205 190 189
169 171 172 173 172 174 181 177 170 166 162 162 166 167 166 171 181 178 168 152 115 100 117 113 95 135 167 186 214 219 222 214 215 229 228 225 236 246 247 242 241 243 243 242 240 239 235 234 236 239 235 226 219 209 201 211 220 222 219 218 218 218 224 217 203 208 215 230 234 233 245 250 250 265 272 280 289 286 276 259 245 237 229 219 209
176 177 177 177 177 180 184 180 175 176 174 170 170 174 172 171 177 165 145 137 115 98 97 91 82 80 95 133 155 142 175 183 200 229 234 234 235 244 248 244 243 246 244 241 242 244 246 242 234 228 224 218 211 210 213 214 227 231 221 218 221 221 224 220 203 201 203 203 210 223 246 253 248 255 264 270 277 279 273 267 259 241 233 235 237
182 184 184 182 181 179 176 170 167 168 172 172 169 173 175 172 160 141 131 128 125 122 115 103 95 91 101 118 108 100 130 148 146 166 181 205 225 235 242 249 248 244 245 245 243 246 248 243 234 225 220 218 211 212 222 219 228 230 213 211 226 227 223 220 206 196 195 192 190 207 238 253 249 247 258 265 267 271 273 270 264 252 251 259 258
189 190 189 185 181 174 169 164 160 161 165 166 163 162 160 148 134 139 145 134 118 120 132 138 118 109 117 121 120 121 140 156 158 163 146 137 203 239 223 241 248 238 243 247 245 245 247 241 231 225 216 217 217 217 223 219 218 221 210 212 229 237 233 224 217 207 195 191 187 176 193 249 258 251 251 257 264 270 275 269 263 266 271 274 271
198 193 188 183 178 170 165 162 161 161 161 161 159 148 137 131 129 141 151 143 135 136 143 156 160 187 215 165 162 163 161 166 164 170 154 102 47 286 230 229 250 257 263 257 249 240 242 241 229 226 217 219 225 223 226 227 220 215 216 221 228 235 235 228 224 220 209 203 202 192 182 205 279 275 257 252 261 270 274 268 260 266 276 281 275
199 193 185 180 177 173 166 163 161 161 162 161 156 144 135 134 137 147 148 143 160 169 170 175 186 208 226 170 163 151 149 164 153 147 138 117 140 255 265 269 269 285 314 307 275 251 242 243 237 230 223 225 230 227 227 232 227 219 221 225 230 233 231 228 225 222 220 219 218 214 207 207 227 284 279 249 249 259 266 264 261 263 272 280 273
194 190 185 180 181 178 172 166 162 162 164 160 149 137 133 135 141 147 142 137 152 165 174 184 196 195 171 133 116 99 98 114 121 129 136 130 133 164 292 353 82 97 41 40 36 303 245 251 255 240 225 223 225 226 226 224 223 221 218 222 231 238 235 230 225 224 225 227 231 228 222 218 217 232 265 240 238 246 250 255 260 261 265 276 275
191 189 186 185 188 185 178 171 166 167 162 152 143 136 135 138 145 148 144 140 145 152 157 160 168 154 131 121 113 101 97 110 121 129 140 143 137 125 102 96 105 104 84 75 81 84 85 80 324 245 226 220 217 220 221 217 218 213 206 216 231 241 244 233 226 228 225 220 226 228 223 223 219 221 222 214 228 243 249 251 253 253 253 260 266
189 188 190 193 193 190 184 174 170 171 159 152 153 154 151 149 154 156 152 146 144 148 135 128 126 114 115 120 121 116 113 124 136 142 152 163 155 144 128 118 117 110 104 97 95 97 93 90 84 84 188 212 213 214 218 219 220 212 207 218 226 230 240 236 226 230 228 221 225 224 219 218 219 224 226 219 222 238 251 255 255 254 251 249 248
188 188 194 200 198 194 186 177 176 171 161 161 165 166 163 161 162 162 160 159 157 156 137 124 116 110 117 125 131 137 137 140 150 160 173 180 171 163 153 140 148 129 119 123 121 115 114 107 95 87 110 170 199 206 212 216 218 215 210 212 210 213 223 217 204 215 221 225 234 232 222 217 219 226 232 230 229 235 243 250 256 259 259 259 255
193 190 195 203 202 198 188 180 180 174 171 172 171 173 170 167 167 167 170 167 160 151 137 127 121 116 114 117 128 140 149 158 164 157 167 174 171 165 156 152 169 158 137 137 136 131 141 131 115 105 103 107 123 161 180 189 206 209 206 209 210 210 215 210 200 201 206 213 225 227 224 223 225 229 233 233 234 237 239 240 241 238 242 252 254
196 193 196 203 206 202 192 186 185 181 180 178 175 176 175 171 168 165 166 162 154 146 136 128 121 116 112 113 118 121 129 143 144 124 137 159 168 160 142 138 156 168 176 183 176 171 185 167 136 130 124 117 112 115 122 124 144 174 184 206 221 222 221 215 205 199 201 208 214 217 218 219 224 228 232 235 235 235 236 238 236 229 229 237 244
196 195 198 203 208 207 198 192 190 188 187 182 179 178 173 169 164 160 159 156 151 143 138 133 126 126 121 113 109 105 106 112 115 108 110 138 158 153 134 130 132 132 160 190 192 190 194 189 172 155 145 137 133 133 127 116 116 121 118 126 157 189 213 220 215 203 197 207 216 218 216 215 217 221 226 235 237 234 232 233 234 233 235 242 248
198 198 200 203 209 210 204 198 196 195 193 187 182 179 174 168 162 156 151 151 152 147 143 139 135 132 122 111 107 102 100 102 105 107 105 116 135 141 139 137 121 105 110 124 129 136 163 185 196 189 170 153 147 152 145 134 137 134 125 126 127 119 129 171 199 199 190 194 207 207 212 222 231 234 234 237 240 239 236 234 236 238 241 242 244
201 202 203 204 207 210 208 204 202 200 196 191 187 181 175 170 164 154 147 152 161 157 149 145 141 134 119 115 114 109 105 105 106 108 108 109 116 126 134 129 112 107 107 103 101 104 117 137 158 175 179 176 172 174 172 167 166 153 142 143 143 137 132 138 150 161 164 170 171 159 155 170 196 228 244 239 258 262 254 246 241 239 237 234 236
203 207 208 208 208 211 213 210 208 207 200 193 191 184 178 174 164 154 151 157 165 164 157 152 148 138 125 122 121 115 108 105 106 107 106 108 111 115 118 114 108 107 105 101 98 96 94 97 99 110 135 157 170 181 184 181 177 168 163 157 149 149 148 147 148 150 157 171 174 169 162 149 144 132 111 83 351 335 286 267 259 254 250 246 246